Location: Unspecified
(0.0000°N, 0.0000°E)
Time: 09:29:43
(UTC+00:00)

Starlink Launch 2 leader - Visible Passes

Search period start: 12 December 2019 00:00
Search period end: 22 December 2019 00:00
Orbit: 279 x 281 km, 53.0° (Epoch: 13 November)

Date Brightness Start Highest point End Pass type
(mag) Time Alt. Az. Time Alt. Az. Time Alt. Az.
13 Dec 4.0 18:21:16 10° S 18:23:09 19° SE 18:25:02 10° ENE visible
14 Dec 2.2 18:22:35 10° SSW 18:25:02 72° SE 18:27:27 10° NE visible
15 Dec 4.2 18:24:45 10° WSW 18:26:54 26° NW 18:29:03 10° N visible
19 Dec 5.4 04:14:29 16° E 04:14:29 16° E 04:15:18 10° ESE visible
20 Dec 5.3 04:17:01 16° SE 04:17:01 16° SE 04:17:37 10° SE visible
